SCP
0 0 0 0 0 0 0 0 1 1 2 3 4 5 5 5 4 5 7 9 10 10 11 11 10 9 10 10 10 10 8 7 6 6 6 6 6 7 10 12 13 11 8 6
0 0 0 0 0 0 0 0 1 1 2 3 5 6 7 6 6 6 8 9 9 10 11 12 11 11 10 11 11 10 8 6 6 7 7 7 7 8 9 9 8 7 5 4
0 0 0 0 0 0 0 1 1 1 2 3 5 7 8 7 6 6 8 9 10 11 13 14 14 12 12 12 12 10 8 7 7 8 8 8 8 8 7 7 5 4 3 3
0 0 0 0 0 1 1 1 1 2 2 3 5 7 7 7 6 6 8 9 11 12 13 14 14 13 11 11 11 10 9 8 9 9 9 9 9 8 8 8 7 6 5 5
1 1 1 1 1 1 1 1 2 2 2 3 6 7 7 6 6 7 9 11 11 11 12 14 14 12 11 10 10 10 9 9 10 11 11 11 11 11 12 12 11 10 9 8
1 1 1 1 2 1 1 2 3 4 4 4 6 7 8 8 9 10 12 13 12 12 13 15 14 13 11 10 10 9 9 10 12 13 14 14 14 15 17 17 15 14 12 11
1 1 1 2 2 2 2 3 4 6 5 5 6 8 11 13 13 14 13 13 12 12 14 14 14 13 12 11 11 10 11 12 14 15 16 16 16 17 18 18 17 16 15 14
1 1 1 2 2 2 2 3 4 6 7 8 9 11 13 15 15 14 13 12 11 11 11 12 13 13 14 14 14 13 13 13 14 15 15 15 15 16 16 16 16 15 14 12
2 2 3 3 3 3 2 3 3 5 9 11 12 13 14 14 13 12 12 12 11 10 9 10 12 14 16 18 18 17 14 13 13 14 15 14 14 13 13 13 13 11 10 9
2 2 3 4 4 3 2 2 3 6 12 14 13 12 11 10 10 10 11 12 12 11 9 9 10 14 17 19 20 17 14 13 13 15 15 14 12 11 11 10 8 7 6 5
2 2 2 3 3 3 2 2 3 7 12 14 11 9 8 8 8 9 10 11 12 13 11 10 10 12 14 17 17 15 13 14 15 15 15 13 11 9 7 6 4 3 3 3
2 2 2 2 2 3 3 3 3 6 10 12 10 7 6 7 7 8 9 10 12 12 10 10 10 10 12 13 14 14 15 16 17 16 15 13 10 7 5 3 2 2 2 2
2 3 4 4 4 4 4 3 4 7 10 11 9 7 6 6 7 7 7 9 11 10 8 8 8 9 11 14 15 16 17 19 18 16 14 12 9 7 5 4 2 2 1 1
2 3 4 5 5 5 5 5 7 11 12 11 8 6 5 5 5 5 6 8 9 8 8 8 8 10 14 18 19 19 19 18 17 15 13 11 10 9 7 6 4 3 2 1
1 2 3 4 5 6 6 7 9 12 12 9 6 5 4 5 5 5 5 6 7 8 8 9 11 14 18 20 21 19 17 15 13 12 10 10 10 10 8 7 5 5 4 3
1 1 2 2 3 5 6 7 8 8 8 6 4 4 4 5 6 5 5 6 6 7 8 10 12 15 18 19 18 17 14 11 9 9 9 9 9 9 7 6 5 5 4 4
1 1 1 2 2 3 4 5 5 4 4 3 3 3 4 6 6 6 6 5 5 5 6 8 10 12 13 14 15 13 11 8 6 7 8 8 7 6 5 5 5 4 3 2
1 1 1 1 2 3 3 3 3 2 2 2 2 3 4 5 5 5 5 5 4 4 5 6 7 8 9 10 10 10 8 6 5 5 6 6 5 4 4 4 4 3 2 1
1 1 1 2 2 3 3 3 2 2 2 2 2 2 3 3 3 3 3 4 4 4 5 5 5 5 5 6 6 6 5 4 3 3 3 3 3 3 3 3 3 2 1 1
2 2 2 2 3 3 3 2 2 2 2 2 2 2 2 2 2 2 3 4 4 4 4 4 4 4 4 3 2 2 2 2 2 2 2 3 3 2 2 2 2 2 1 1
3 2 2 2 2 2 2 1 1 1 1 1 2 2 2 2 3 3 3 3 4 4 3 3 3 4 3 2 1 1 1 1 1 2 2 3 3 3 2 2 2 1 1 1
2 2 2 2 2 2 1 1 1 1 1 1 2 2 2 2 3 3 3 3 3 3 2 2 2 2 1 1 1 1 1 1 1 1 2 2 2 2 1 1 1 0 1 1
2 2 2 2 2 1 1 1 1 1 1 1 2 2 2 2 3 3 3 3 3 2 1 1 1 1 1 1 1 1 1 1 1 1 1 1 1 1 1 1 0 0 0 1
1 1 1 1 1 1 1 1 1 1 1 1 1 1 2 2 2 3 3 2 1 1 1 1 0 0 0 0 1 1 1 1 0 0 0 0 0 0 0 0 0 0 0 0
1 1 1 1 1 1 0 0 1 1 1 1 1 1 1 1 2 2 2 1 0 0 0 0 0 0 0 0 0 0 0 0 0 0 0 0 0 0 0 0 0 0 0 0
1 1 1 0 0 0 0 0 0 0 1 0 0 0 0 1 1 1 1 1 0 0 0 0 0 0 0 0 0 0 0 0 0 0 0 0 0 0 0 0 0 1 1 1
0 1 1 0 0 0 0 0 0 0 0 0 0 0 0 0 0 1 1 0 0 0 0 0 0 0 0 0 0 0 0 0 0 0 0 0 0 0 0 0 1 1 1 1
Wind_Speed
13 14 13 12 12 12 11 11 10 6 5 3 2 3 4 5 7 7 7 6 7 7 7 7 6 6 6 5 5 5 5 5 5 4 3 2 2 2 2 2 1 1 1 1
14 14 14 13 12 11 11 10 10 9 4 1 2 2 4 4 5 5 6 7 7 7 7 7 7 6 6 6 5 5 5 5 5 4 4 3 3 3 2 2 1 1 1 1
11 12 13 12 10 10 9 8 8 7 3 2 2 2 3 4 4 4 4 5 6 6 6 6 6 6 6 6 5 5 5 5 5 5 5 4 3 3 2 2 2 1 1 1
10 11 13 7 7 8 6 5 4 3 3 4 4 3 3 4 4 5 4 5 6 5 5 6 5 6 5 6 6 5 5 5 5 5 5 4 4 3 3 2 2 1 1 1
8 11 12 8 5 4 5 3 3 2 1 1 0 2 3 3 4 3 3 5 5 5 5 5 5 5 5 5 6 6 6 6 5 5 5 5 4 3 3 2 2 2 2 1
9 11 11 6 5 6 5 4 3 2 1 1 1 3 2 3 4 3 3 4 4 5 5 5 4 4 5 6 6 6 6 5 5 5 5 5 4 4 3 2 2 2 2 1
12 11 7 4 5 6 4 1 4 4 3 2 2 2 2 3 3 3 4 4 4 4 4 4 4 4 5 5 5 5 5 5 4 4 4 4 4 3 3 3 3 2 2 3
9 10 5 7 4 2 3 5 5 5 4 3 1 1 2 2 3 3 4 4 3 3 3 3 4 4 5 5 4 4 5 5 5 4 4 4 4 4 4 4 4 4 3 3
2 2 3 6 5 3 4 5 4 4 3 2 1 1 2 2 2 2 3 3 3 3 3 3 3 4 4 3 3 4 4 4 4 4 3 3 4 4 4 4 4 4 4 3
2 3 3 2 3 4 5 5 5 4 4 3 2 1 1 2 2 2 2 2 2 3 3 3 3 3 3 3 4 3 3 3 3 3 3 3 3 3 3 3 3 3 2 2
4 4 3 1 2 3 4 5 5 4 3 2 1 1 1 1 1 2 2 2 2 2 2 3 3 3 3 3 4 4 3 3 3 3 2 2 1 1 1 1 1 2 2 1
4 4 4 3 3 4 3 4 5 5 4 3 2 2 1 1 1 1 2 3 2 2 2 2 3 3 3 3 4 4 4 4 3 3 3 3 2 0 2 1 1 1 2 2
3 3 4 3 4 4 5 5 5 5 4 3 2 2 2 1 1 2 2 2 3 2 2 2 3 3 3 3 3 3 3 3 2 2 2 3 3 2 1 1 1 1 1 2
4 4 3 3 4 4 5 5 4 4 4 3 2 2 1 1 1 1 1 2 2 2 2 2 2 2 2 2 2 2 2 2 2 2 2 2 2 2 2 2 2 1 1 3
4 4 3 2 2 3 4 4 3 3 3 3 3 2 2 2 1 0 0 1 2 2 2 2 2 2 2 2 2 2 2 1 1 2 2 2 2 2 2 2 2 2 1 2
4 4 3 3 3 3 4 4 4 3 3 3 3 3 3 3 2 2 2 1 1 0 1 2 2 2 2 2 2 1 2 2 2 2 3 3 2 2 2 2 2 3 3 2
3 3 4 4 4 3 3 3 3 3 2 2 2 2 2 2 2 2 2 2 2 0 0 0 1 2 1 1 1 1 1 2 3 3 3 2 2 2 2 3 3 3 2 1
2 2 3 3 3 3 3 3 3 2 2 2 2 2 2 2 2 3 2 2 3 3 3 2 2 2 1 1 1 1 1 1 1 2 1 1 1 2 2 3 3 3 2 2
2 2 2 3 2 2 3 3 3 2 2 2 2 2 2 3 2 2 2 3 3 3 3 3 2 1 1 1 0 1 1 2 1 1 1 1 2 2 3 3 3 2 2 2
3 3 2 3 3 2 2 2 2 2 2 2 1 1 2 2 2 2 2 3 2 2 2 3 2 1 1 1 1 2 2 2 2 1 1 1 2 2 2 2 3 2 1 2
3 3 3 3 3 3 3 2 2 2 2 2 2 1 1 1 2 2 1 1 2 2 1 1 1 1 1 1 2 3 2 2 2 2 1 1 2 2 2 2 2 2 2 2
3 3 3 2 2 2 2 3 3 2 3 2 2 2 1 2 2 2 1 0 1 1 1 1 1 1 1 1 2 2 2 2 2 2 2 1 1 1 2 2 2 2 2 2
2 2 2 2 1 1 2 2 2 2 2 2 2 2 1 1 0 0 0 1 1 1 1 1 1 1 1 2 2 2 2 2 2 2 1 1 1 1 2 2 2 2 3 3
1 1 2 1 1 1 2 2 2 1 2 2 2 2 1 1 0 0 1 2 2 1 1 2 1 1 3 3 2 2 2 2 2 2 2 2 2 2 2 2 2 3 3 4
1 0 0 0 0 0 1 1 1 0 0 0 1 1 1 1 1 1 1 1 1 1 1 1 2 3 3 2 2 2 2 2 2 3 2 2 2 2 3 3 3 3 3 4
1 1 1 1 0 1 1 1 1 1 1 0 0 1 1 1 1 0 0 0 0 1 1 0 1 2 2 1 1 2 2 2 2 2 2 2 2 3 2 3 4 3 3 3
2 1 1 1 1 1 1 1 1 1 1 0 0 0 1 1 1 1 1 1 1 1 1 1 0 0 1 1 1 2 2 2 2 2 2 2 2 2 2 3 3 3 3 3
Wind_Direction
266 270 265 258 251 247 249 255 258 258 247 231 181 160 141 139 146 152 170 169 154 150 149 150 150 151 154 155 152 149 154 156 154 153 149 152 146 130 127 129 126 101 66 34
269 268 268 270 260 246 243 250 254 262 257 226 129 152 153 150 158 164 172 169 158 150 145 151 154 160 157 159 159 156 161 164 158 157 155 151 147 137 130 126 94 79 56 50
264 268 271 261 266 257 246 243 246 247 240 163 189 184 167 149 156 164 180 160 156 156 152 152 155 156 159 162 162 165 164 171 165 162 164 167 166 149 143 134 114 90 66 84
266 270 259 254 263 266 259 255 257 240 213 198 195 176 163 152 162 170 174 160 150 145 146 152 153 157 162 168 169 172 172 174 171 168 168 163 164 156 153 148 156 164 187 142
259 256 262 266 270 279 260 260 296 291 261 270 288 171 180 155 154 155 157 139 143 150 153 152 157 163 167 173 174 178 179 181 179 174 169 172 172 167 168 173 181 197 201 171
255 258 252 258 311 318 285 246 330 16 357 311 327 239 198 114 112 120 127 124 140 147 149 154 163 169 177 184 187 189 185 182 179 178 175 179 177 174 177 178 198 212 200 193
249 255 256 306 324 313 266 302 5 11 5 334 328 345 70 96 112 132 129 125 133 140 147 156 166 177 186 190 192 187 180 178 178 179 176 179 173 171 177 193 204 207 212 213
244 248 254 345 354 12 12 357 358 357 14 17 354 75 93 100 112 117 125 137 145 147 146 152 169 184 190 190 187 182 177 180 180 177 194 188 169 178 193 202 205 208 209 215
291 274 340 4 35 35 359 338 347 349 2 352 341 155 145 134 123 131 139 145 147 154 156 166 181 190 193 180 173 176 177 182 178 177 182 179 183 192 199 208 217 215 210 209
247 226 255 328 353 358 344 327 332 347 354 349 343 320 166 137 138 135 140 145 148 166 177 176 182 185 174 170 169 175 180 178 177 180 191 182 192 207 210 215 220 224 215 219
262 275 299 312 360 349 336 320 322 331 337 332 302 304 12 67 103 123 136 147 160 170 169 174 173 170 173 171 163 166 179 182 187 195 187 170 179 227 235 242 242 229 250 264
293 304 306 314 325 321 320 312 324 335 328 330 348 345 9 67 105 146 170 158 156 174 181 173 170 167 167 166 172 172 178 186 200 196 182 191 184 190 22 308 283 243 210 225
330 312 327 338 327 326 323 329 338 347 357 355 349 346 13 46 100 156 171 164 165 174 167 160 166 174 174 170 173 177 181 183 210 205 197 203 199 195 191 3 2 353 258 220
333 313 300 324 329 324 327 335 343 349 348 350 3 360 25 55 61 100 162 169 168 170 165 162 165 168 161 157 164 167 181 184 206 217 222 217 213 207 209 216 221 247 241 210
312 307 307 328 325 326 338 343 338 336 349 358 17 18 26 42 63 354 208 150 161 174 174 170 175 166 161 173 172 181 207 212 222 237 230 231 230 220 223 234 243 246 227 206
319 317 317 312 309 313 317 321 323 323 336 355 359 1 21 24 17 24 20 24 84 141 171 174 168 160 173 177 170 186 194 212 227 240 248 242 238 241 241 240 248 257 249 222
283 295 301 300 300 301 303 307 310 311 327 346 8 18 24 30 27 37 52 47 56 35 70 135 127 115 118 136 162 227 232 217 224 242 249 254 263 265 264 264 259 256 261 250
304 306 300 300 298 299 302 302 311 329 346 349 3 13 20 29 31 25 8 22 42 38 32 36 62 78 72 79 70 290 280 268 250 251 257 272 280 277 268 265 262 260 257 235
335 335 345 348 334 323 336 344 343 345 346 342 358 17 34 50 44 26 19 31 28 29 16 9 24 45 46 79 17 263 251 262 270 270 273 232 245 258 263 269 275 280 268 260
15 15 9 2 0 6 1 0 15 13 0 357 4 23 45 46 32 28 36 37 19 18 15 360 328 350 31 66 311 270 261 265 277 270 254 262 266 273 277 279 280 276 262 250
24 22 22 23 27 22 16 16 14 358 355 6 6 7 60 80 60 46 47 27 34 29 16 28 343 2 32 352 285 269 269 279 289 291 279 272 282 296 296 287 280 277 270 266
8 11 12 28 48 37 21 21 16 9 359 351 352 353 18 78 84 82 87 77 60 46 4 52 352 24 11 293 263 274 283 290 291 294 289 280 281 295 299 296 291 289 285 281
4 1 3 18 46 31 15 20 23 14 359 348 356 5 355 0 8 252 312 55 54 47 337 18 37 93 257 264 275 287 292 297 297 300 309 316 318 302 290 294 298 302 304 299
18 10 12 15 28 27 10 355 9 24 16 6 2 348 320 308 8 15 70 109 104 145 332 83 141 220 260 270 284 302 311 321 323 321 326 332 325 317 307 301 298 297 293 291
48 8 334 350 49 38 21 334 328 287 293 12 351 331 306 316 341 32 51 86 116 204 323 137 190 229 251 277 298 320 325 349 344 332 336 347 339 332 329 322 314 308 306 309
173 240 247 277 289 239 218 227 256 277 263 185 104 330 316 334 334 9 5 281 76 287 293 326 202 232 256 283 330 347 351 357 351 345 350 344 333 327 324 319 317 316 317 321
201 209 212 238 244 256 264 262 276 301 321 8 73 306 302 318 360 22 7 345 314 280 304 343 311 297 315 337 352 355 353 352 356 350 347 346 335 327 327 324 318 311 305 309